星链-5361 (STARLINK-5361 )

导读

STARLINK-5361是美国SpaceX公司星链星座的成员卫星,于2023年6月23日发射入轨。作为低轨卫星互联网项目的组成部分,它承担着全球宽带互联网接入服务任务,重点为偏远、服务不足地区提供网络覆盖,同时也可支持移动场景连接。星链计划最终部署规模超四万颗卫星,该卫星加入后进一步扩充了星座在轨容量,提升星座服务覆盖能力与网络稳定性,助力SpaceX实现全球卫星互联网的部署目标。

Basic Information
目录编号:
57142
目录名称:
STARLINK-5361
国际标识:
2023-090AT
轨道中心:
EARTH
卫星名称:
星链-5361
卫星全名:
星链-5361 (STARLINK-5361 )
卫星状态:
在轨 (已飞行1176 天)
发射日期:
2023-06-23 UTC
国别 :
美国 (US)
星等 :
--
This satellite is enrolled in the Space Conjunction Data Service (SCDS) and the current flight risk assessment level is: No High Risk
Orbit Information
数据来源 国际轨道数据 AOE轨道数据
星历时间 2026-09-11T10:36:40+0800
15小时前
查看轨道信息
2026-09-06T07:00:00+0800
5天前
查看轨道信息
半长轴 6861.204km 6861.187km
偏心率 0.0001569 0.0002005
轨道倾角 43.004° 43.003°
近地点辐角 297.580° 287.173°
升交点赤经 295.951° 325.042°
平近点角 62.489° 155.811°
近地点 481.99km 481.674km
远地点 484.144km 484.426km
周期 94.267分钟 94.267分钟
每日圈数 15.275743 15.275798
Detailed Information
固有亮度:
5
最大亮度:
2.4
卫星平台:
Starlink v1.5
覆盖范围:
全球
运营商:
太空探索技术公司
运营商所在国:
美国
制造商(研发单位):
太空探索技术公司
制造商所在国:
美国
使用方式:
暂无
Satellite Introduction
星链(Starlink)计划是由太空探索技术公司(SpaceX)提出的一个巨型低轨卫星互联网星座项目,计划在2019年至2024年间在太空搭建由约1.2万颗卫星组成的“星链”网络,其中1584颗将部署在地球上空550千米处的近地轨道,并从2020年开始工作。该卫星仍在工作。
2D Orbit Map
3D Orbit Map
Orbit Altitude Analysis Chart
Orbit Inclination Analysis Chart
Orbit Comprehensive Analysis Chart
View Comprehensive Chart
Conjunction Data List
Event ID Objects TCA Miss Dist (km) Collision Risk Probability Collision Risk Index (CRI) Action
CDM_260913-215205-714206-364221
2026-09-13T
21:52:54+0000
0.347 km
远距离
3.066008E-4 高风险 0.85
CDM_260913-142805-714206-712321
2026-09-13T
14:28:08+0000
0.591 km
远距离
8.979092E-5 中风险 0.74
CDM_260913-214305-714206-654421
2026-09-13T
21:43:15+0000
0.518 km
远距离
4.730879E-5 中风险 0.68
CDM_260914-013805-714206-654421
2026-09-14T
01:38:38+0000
0.782 km
远距离
1.288961E-5 中风险 0.57
CDM_260914-034805-714206-712321
2026-09-14T
03:48:27+0000
1.445 km
极远距离
4.836109E-6 低风险 0.49
CDM_260912-221305-714206-329725
OBJECT G (63297)
2026-09-12T
22:13:08+0000
1.619 km
极远距离
4.73994E-6 低风险 0.49
CDM_260913-125305-714206-712321
2026-09-13T
12:53:59+0000
1.496 km
极远距离
4.324097E-6 低风险 0.48
CDM_260912-123505-714206-383424
HERMES-5 (63834)
2026-09-12T
12:35:27+0000
1.969 km
极远距离
2.829212E-6 低风险 0.44
CDM_260905-045905-714206-309521
2026-09-05T
04:59:28+0000
1.893 km
极远距离
2.181173E-6 低风险 0.42
CDM_260913-160205-714206-712321
2026-09-13T
16:02:17+0000
2.041 km
极远距离
1.801433E-6 低风险 0.4
Miss Distance Evolution Trend with All Objects
Collision Probability Evolution Trend with All Objects